This demonstration page uses our WeatherBlox Daily Observations layout. Learn more.

Hourly Observations for January 30, 2016

Temp ( °F °C ) Dew Point ( °F °C ) Humidity (%) Winds ( mph kmh ) Pressure ( in mb ) Visibility ( mi km ) Precip ( " mm )
12:15 am 00:15 Clear 33 0.3 30 -1.2 90 90 Calm 29.83 1010 10 16.0934 0 0
12:35 am 00:35 Clear 31 -0.5 28 -2.5 87 87 SSW 5 7 29.83 1010 10 16.0934 0 0
12:55 am 00:55 Clear 35 1.4 31 -0.6 87 87 SW 7 11 29.77 1008 10 16.0934 0 0
1:15 am 01:15 Clear 34 1.2 30 -1.1 85 85 WSW 3 6 29.8 1009 10 16.0934 0 0
1:35 am 01:35 Clear 35 1.5 31 -0.5 87 87 SW 7 11 29.77 1008 10 16.0934 0 0
1:55 am 01:55 Clear 34 1.3 31 -0.7 87 87 SW 7 11 29.77 1008 10 16.0934 0 0
2:15 am 02:15 Clear 35 1.5 31 -0.6 86 86 SW 8 13 29.77 1008 10 16.0934 0 0
2:35 am 02:35 Clear 35 1.4 31 -0.7 86 86 SW 7 11 29.77 1008 10 16.0934 0 0
2:55 am 02:55 Clear 35 1.4 31 -0.4 88 88 SW 8 13 29.77 1008 10 16.0934 0 0
3:15 am 03:15 Clear 37 2.5 32 0 84 84 WSW 8 13 29.77 1008 10 16.0934 0 0
3:35 am 03:35 Clear 37 2.7 32 0 83 83 WSW 6 9 29.77 1008 10 16.0934 0 0
3:55 am 03:55 Clear 36 2.1 31 -0.5 83 83 WSW 3 6 29.77 1008 10 16.0934 0 0
4:15 am 04:15 Clear 37 2.7 32 0 83 83 WSW 6 9 29.77 1008 10 16.0934 0 0
4:35 am 04:35 Clear 36 2.3 31 -0.3 83 83 WSW 6 9 29.77 1008 10 16.0934 0 0
4:55 am 04:55 Clear 36 2 31 -0.3 85 85 WSW 6 9 29.77 1008 10 16.0934 0 0
5:15 am 05:15 Clear 37 3 32 0 81 81 SW 8 13 29.71 1006 10 16.0934 0 0
5:35 am 05:35 Clear 35 1.5 31 -0.7 85 85 SW 7 11 29.74 1007 10 16.0934 0 0
5:55 am 05:55 Clear 35 1.5 31 -0.5 87 87 SW 8 13 29.71 1006 10 16.0934 0 0
6:15 am 06:15 Clear 36 2 32 -0.1 86 86 SW 8 13 29.71 1006 10 16.0934 0 0
6:35 am 06:35 Clear 37 2.7 32 0 83 83 SSW 9 15 29.68 1005 10 16.0934 0 0
6:55 am 06:55 Clear 36 2.3 32 0 85 85 SW 12 19 29.71 1006 10 16.0934 0 0
7:15 am 07:15 Clear 35 1.9 31 -0.4 85 85 SW 9 15 29.71 1006 10 16.0934 0 0
7:35 am 07:35 Clear 35 1.5 31 -0.5 87 87 SW 7 11 29.71 1006 10 16.0934 0 0
7:55 am 07:55 Sunny 35 1.6 31 -0.5 86 86 SW 7 11 29.71 1006 10 16.0934 0 0
8:15 am 08:15 Sunny 35 1.5 31 -0.5 87 87 SW 10 17 29.71 1006 10 16.0934 0 0
8:35 am 08:35 Sunny 36 2 31 -0.3 85 85 SW 9 15 29.71 1006 10 16.0934 0 0
8:55 am 08:55 Sunny 36 2.3 32 -0.2 84 84 SW 6 9 29.71 1006 10 16.0934 0 0
9:15 am 09:15 Sunny 37 2.5 32 0 84 84 SW 8 13 29.68 1005 10 16.0934 0 0
9:35 am 09:35 Sunny 37 2.6 32 0 83 83 SW 10 17 29.65 1004 10 16.0934 0 0
9:55 am 09:55 Sunny 38 3.1 32 0.2 81 81 SW 12 19 29.65 1004 10 16.0934 0 0
10:15 am 10:15 Sunny 39 3.7 33 0.5 80 80 SSW 10 17 29.65 1004 10 16.0934 0 0
10:35 am 10:35 Sunny 40 4.6 34 1 78 78 SSW 12 19 29.65 1004 10 16.0934 0 0
10:55 am 10:55 Sunny 42 5.5 34 1.1 74 74 SSW 10 17 29.62 1003 10 16.0934 0 0
11:15 am 11:15 Sunny 43 6.3 35 1.5 72 72 SSW 9 15 29.62 1003 10 16.0934 0 0
11:35 am 11:35 Sunny 46 8 35 1.6 64 64 SSW 14 22 29.59 1002 10 16.0934 0 0
11:55 am 11:55 Sunny 51 10.7 34 1.3 53 53 SSW 17 28 29.56 1001 10 16.0934 0 0
12:15 pm 12:15 Sunny 53 11.5 34 0.9 48 48 SSW 21 33 29.53 1000 10 16.0934 0 0
12:35 pm 12:35 Sunny 54 12.1 34 1 47 47 SSW 22 35 29.5 999 10 16.0934 0 0
12:55 pm 12:55 Sunny 54 12.1 34 1.1 47 47 SSW 16 26 29.5 999 10 16.0934 0 0
1:15 pm 13:15 Sunny 54 12 34 1.1 48 48 S 15 24 29.5 999 10 16.0934 0 0
1:35 pm 13:35 Sunny 55 12.5 34 1 46 46 S 17 28 29.47 998 10 16.0934 0 0
1:55 pm 13:55 Sunny 55 12.7 33 0.8 44 44 SSW 13 20 29.47 998 10 16.0934 0 0
2:15 pm 14:15 Sunny 56 13.3 34 0.9 43 43 SSW 17 28 29.44 997 10 16.0934 0 0
2:35 pm 14:35 Sunny 55 13 34 0.9 44 44 S 15 24 29.44 997 10 16.0934 0 0
2:55 pm 14:55 Sunny 55 12.5 33 0.8 45 45 S 12 19 29.44 997 10 16.0934 0 0
3:15 pm 15:15 Sunny 53 11.6 34 1 48 48 S 3 6 29.44 997 10 16.0934 0 0
3:35 pm 15:35 Mostly Cloudy 53 11.7 34 1.2 49 49 Calm 29.47 998 10 16.0934 0 0
3:55 pm 15:55 Partly Cloudy 55 12.5 34 0.9 45 45 SW 3 6 29.44 997 10 16.0934 0 0
4:15 pm 16:15 Sunny 54 12.4 33 0.6 45 45 SW 6 9 29.47 998 10 16.0934 0 0
4:35 pm 16:35 Sunny 54 12.1 33 0.6 46 46 Calm 29.47 998 10 16.0934 0 0
4:55 pm 16:55 Sunny 53 11.7 33 0.8 47 47 Calm 29.44 997 10 16.0934 0 0
5:15 pm 17:15 Sunny 52 11.1 34 0.9 50 50 Calm 29.5 999 10 16.0934 0 0
5:35 pm 17:35 Sunny 50 9.9 34 1.2 55 55 NNW 3 6 29.53 1000 10 16.0934 0 0
5:55 pm 17:55 Clear 48 9 34 1.2 58 58 NNW 5 7 29.53 1000 10 16.0934 0 0
6:15 pm 18:15 Clear 44 6.6 37 2.5 75 75 N 8 13 29.59 1002 10 16.0934 0 0
6:35 pm 18:35 Clear 41 5.1 35 1.7 79 79 NNE 7 11 29.62 1003 10 16.0934 0 0
6:55 pm 18:55 Clear 40 4.5 35 1.5 81 81 N 7 11 29.62 1003 10 16.0934 0 0
7:15 pm 19:15 Clear 37 3 33 0.6 84 84 N 7 11 29.62 1003 10 16.0934 0 0
7:35 pm 19:35 Clear 38 3.5 34 1.2 85 85 N 10 17 29.62 1003 10 16.0934 0 0
7:55 pm 19:55 Clear 38 3.3 33 0.5 82 82 NNE 13 20 29.62 1003 10 16.0934 0 0
8:15 pm 20:15 Clear 37 3 32 0.1 81 81 N 13 20 29.62 1003 10 16.0934 0 0
8:35 pm 20:35 Clear 37 2.6 32 0.1 84 84 N 12 19 29.65 1004 10 16.0934 0 0
8:55 pm 20:55 Clear 37 2.7 32 0 83 83 N 10 17 29.65 1004 10 16.0934 0 0
9:15 pm 21:15 Clear 36 2.2 32 0 86 86 N 8 13 29.71 1006 10 16.0934 0 0
9:35 pm 21:35 Clear 36 2 32 -0.2 86 86 N 8 13 29.71 1006 10 16.0934 0 0
9:55 pm 21:55 Clear 35 1.5 31 -0.5 87 87 N 10 17 29.71 1006 10 16.0934 0 0
10:15 pm 22:15 Mostly Cloudy 35 1.6 32 -0.1 89 89 N 8 13 29.71 1006 10 16.0934 0 0
10:35 pm 22:35 Cloudy 37 3 33 0.5 84 84 N 10 17 29.71 1006 10 16.0934 0 0
10:55 pm 22:55 Cloudy 37 3 33 0.5 84 84 N 10 17 29.68 1005 10 16.0934 0 0
11:15 pm 23:15 Cloudy 37 3 33 0.3 83 83 N 10 17 29.71 1006 10 16.0934 0 0
11:35 pm 23:35 Cloudy 37 3 33 0.3 83 83 NNW 7 11 29.77 1008 10 16.0934 0 0
11:55 pm 23:55 Cloudy 38 3.2 33 0.4 82 82 N 12 19 29.77 1008 10 16.0934 0 0

Powered by AerisWeather